Temp
-11 -11 -11 -11 -12 -12 -12 -11 -11 -11 -11 -11 -11 -12 -12 -12 -12 -12 -12 -12 -11 -12 -12 -12 -12 -12 -13 -12 -12 -12 -12 -12 -12 -12 -12 -12 -11 -12 -12 -12 -12 -12 -12
-11 -11 -11 -12 -12 -12 -12 -12 -12 -11 -11 -11 -11 -12 -12 -13 -12 -12 -12 -12 -11 -12 -12 -12 -12 -12 -12 -12 -12 -12 -12 -12 -13 -12 -12 -12 -12 -12 -12 -12 -12 -12 -12
-11 -11 -12 -12 -12 -12 -12 -12 -12 -12 -12 -12 -12 -12 -12 -12 -12 -12 -13 -12 -12 -11 -12 -12 -12 -11 -12 -11 -11 -12 -12 -12 -12 -12 -12 -12 -12 -12 -12 -12 -12 -12 -12
-11 -11 -11 -12 -12 -12 -12 -12 -12 -12 -12 -12 -12 -12 -12 -12 -12 -12 -12 -13 -12 -12 -11 -11 -11 -11 -11 -10 -11 -11 -12 -12 -12 -13 -13 -13 -12 -12 -12 -12 -12 -12 -12
-12 -12 -12 -12 -12 -12 -12 -12 -12 -12 -12 -12 -12 -12 -12 -13 -13 -13 -13 -13 -13 -12 -11 -11 -11 -11 -11 -11 -11 -12 -12 -12 -12 -12 -12 -13 -13 -12 -12 -12 -12 -12 -12
-13 -13 -13 -13 -12 -12 -12 -13 -13 -12 -12 -13 -13 -12 -13 -13 -13 -13 -13 -13 -13 -13 -12 -12 -12 -12 -12 -12 -13 -13 -11 -12 -13 -12 -12 -12 -12 -12 -12 -12 -12 -13 -12
-13 -13 -13 -13 -13 -13 -13 -13 -13 -13 -13 -13 -13 -13 -13 -13 -12 -13 -13 -13 -13 -13 -13 -12 -12 -12 -12 -12 -13 -12 -12 -14 -13 -12 -12 -12 -12 -12 -12 -12 -12 -12 -13
-13 -13 -13 -14 -14 -15 -15 -15 -15 -14 -14 -14 -13 -13 -13 -13 -13 -13 -14 -14 -13 -14 -14 -13 -12 -12 -12 -12 -13 -13 -12 -12 -12 -12 -11 -12 -12 -12 -12 -12 -12 -12 -12
-13 -13 -14 -14 -16 -16 -16 -16 -16 -16 -15 -15 -15 -15 -14 -14 -14 -14 -14 -14 -14 -14 -14 -14 -14 -13 -13 -13 -14 -13 -12 -12 -12 -12 -12 -12 -12 -12 -12 -12 -11 -12 -12
-14 -14 -15 -16 -16 -17 -17 -17 -17 -17 -16 -16 -16 -16 -16 -15 -15 -15 -15 -15 -15 -15 -16 -16 -15 -14 -14 -15 -14 -14 -13 -12 -12 -12 -12 -12 -12 -12 -12 -12 -12 -11 -12
-15 -16 -17 -17 -17 -17 -18 -18 -17 -18 -18 -17 -17 -17 -17 -16 -16 -16 -16 -17 -17 -17 -17 -16 -17 -16 -15 -15 -15 -15 -14 -13 -12 -12 -11 -11 -12 -12 -12 -12 -12 -11 -12
-17 -17 -17 -18 -18 -18 -18 -19 -19 -19 -18 -18 -18 -18 -18 -17 -17 -17 -16 -17 -17 -17 -18 -18 -17 -17 -17 -16 -16 -16 -15 -13 -12 -12 -12 -11 -12 -12 -12 -12 -12 -12 -12
-18 -18 -18 -19 -19 -19 -19 -19 -19 -19 -19 -19 -18 -18 -18 -18 -18 -18 -18 -17 -17 -17 -18 -18 -17 -17 -17 -17 -17 -17 -16 -14 -13 -12 -12 -12 -12 -12 -12 -12 -12 -12 -12
-18 -19 -19 -20 -19 -19 -19 -19 -20 -20 -19 -19 -19 -18 -18 -18 -18 -18 -18 -18 -17 -17 -17 -17 -18 -18 -17 -17 -17 -17 -16 -15 -14 -13 -13 -13 -12 -12 -12 -13 -12 -12 -12
-19 -20 -20 -20 -20 -20 -20 -20 -20 -20 -20 -19 -19 -18 -18 -18 -18 -18 -18 -18 -18 -17 -17 -17 -18 -18 -18 -17 -16 -17 -17 -16 -14 -14 -13 -13 -13 -12 -12 -12 -12 -12 -12
-21 -21 -21 -21 -20 -20 -20 -20 -20 -20 -20 -20 -19 -19 -19 -19 -19 -19 -19 -18 -18 -17 -18 -18 -17 -17 -17 -17 -17 -17 -17 -17 -16 -15 -15 -14 -14 -13 -13 -13 -13 -11 -13
-21 -21 -21 -21 -21 -21 -21 -20 -21 -21 -20 -20 -19 -19 -19 -19 -19 -19 -18 -18 -18 -18 -18 -17 -17 -17 -17 -17 -18 -17 -18 -17 -18 -17 -14 -14 -14 -13 -13 -13 -12 -13 -12
-22 -22 -22 -22 -22 -21 -21 -21 -21 -21 -20 -20 -20 -19 -19 -19 -19 -19 -18 -18 -18 -18 -17 -17 -17 -17 -18 -18 -19 -18 -18 -17 -18 -18 -17 -15 -14 -14 -14 -13 -13 -13 -13
-23 -23 -23 -23 -22 -22 -21 -21 -21 -22 -21 -21 -20 -20 -19 -19 -19 -19 -19 -19 -19 -18 -18 -17 -17 -17 -17 -18 -19 -19 -18 -18 -18 -18 -18 -17 -17 -15 -14 -14 -14 -13 -13
-23 -23 -23 -22 -22 -22 -22 -22 -22 -22 -22 -21 -21 -21 -20 -20 -19 -19 -20 -19 -18 -18 -18 -18 -17 -17 -17 -18 -18 -19 -19 -19 -18 -18 -18 -17 -17 -18 -16 -15 -14 -14 -14
-23 -23 -23 -23 -23 -24 -24 -24 -23 -23 -23 -22 -22 -21 -21 -21 -21 -20 -19 -19 -19 -19 -18 -18 -17 -17 -17 -18 -18 -18 -19 -19 -19 -18 -17 -18 -18 -17 -17 -17 -17 -17 -16
-24 -24 -24 -25 -25 -25 -24 -24 -24 -24 -24 -24 -23 -22 -22 -22 -21 -21 -20 -20 -19 -18 -18 -18 -18 -18 -18 -18 -18 -18 -18 -19 -19 -19 -18 -17 -18 -18 -17 -18 -17 -17 -16
-24 -25 -26 -26 -25 -25 -25 -25 -25 -25 -24 -24 -24 -24 -23 -23 -23 -22 -21 -21 -20 -19 -19 -18 -18 -18 -18 -18 -18 -18 -18 -18 -19 -18 -19 -19 -19 -18 -18 -17 -18 -17 -17
-25 -26 -26 -26 -25 -25 -26 -26 -25 -25 -25 -25 -24 -24 -23 -23 -23 -23 -22 -22 -22 -22 -21 -21 -21 -20 -20 -20 -19 -19 -19 -18 -18 -18 -18 -18 -19 -19 -19 -18 -18 -18 -18
-25 -25 -25 -26 -26 -25 -26 -26 -25 -25 -24 -24 -24 -24 -24 -23 -23 -23 -23 -23 -23 -22 -22 -22 -22 -22 -22 -22 -22 -21 -21 -21 -20 -19 -19 -19 -19 -19 -19 -19 -19 -18 -18
-25 -25 -26 -26 -26 -26 -26 -25 -25 -25 -24 -24 -24 -24 -23 -23 -23 -23 -23 -23 -23 -23 -22 -22 -22 -22 -22 -22 -22 -22 -22 -22 -22 -21 -21 -21 -20 -20 -21 -19 -19 -19 -19
Height
5813 5812 5813 5813 5811 5812 5814 5813 5812 5811 5809 5808 5806 5804 5803 5803 5803 5803 5802 5800 5800 5798 5794 5791 5791 5793 5794 5797 5801 5802 5804 5806 5806 5807 5807 5809 5810 5809 5810 5811 5813 5814 5814
5805 5804 5802 5803 5802 5801 5800 5800 5799 5798 5797 5796 5794 5794 5793 5793 5793 5793 5792 5790 5786 5786 5785 5787 5785 5783 5784 5785 5790 5793 5795 5798 5799 5799 5801 5803 5804 5804 5805 5806 5807 5809 5810
5794 5794 5793 5792 5791 5791 5790 5789 5788 5786 5785 5784 5783 5783 5782 5781 5780 5780 5780 5777 5769 5773 5775 5782 5776 5764 5777 5782 5783 5785 5785 5788 5791 5792 5793 5796 5798 5799 5799 5800 5801 5801 5804
5784 5783 5782 5781 5780 5779 5779 5777 5776 5774 5774 5773 5772 5772 5770 5768 5769 5767 5766 5767 5765 5768 5769 5775 5772 5762 5764 5744 5764 5773 5777 5777 5780 5783 5785 5786 5790 5792 5794 5794 5795 5796 5796
5775 5773 5771 5769 5767 5766 5766 5764 5762 5761 5761 5760 5761 5760 5757 5756 5754 5753 5753 5754 5757 5760 5760 5763 5765 5769 5771 5766 5748 5760 5765 5766 5772 5777 5777 5777 5779 5783 5786 5789 5789 5790 5791
5763 5761 5759 5757 5754 5753 5751 5749 5749 5746 5746 5746 5746 5746 5745 5742 5740 5737 5737 5740 5743 5749 5750 5753 5758 5758 5760 5756 5755 5756 5747 5758 5764 5766 5767 5769 5769 5773 5776 5780 5782 5783 5785
5751 5748 5746 5743 5740 5737 5734 5732 5730 5729 5727 5729 5729 5729 5730 5731 5729 5725 5723 5725 5727 5731 5739 5741 5742 5744 5743 5743 5743 5746 5742 5743 5755 5757 5757 5758 5761 5763 5767 5769 5773 5775 5777
5736 5732 5728 5724 5720 5716 5714 5713 5711 5710 5711 5707 5708 5711 5713 5712 5715 5712 5710 5710 5714 5715 5720 5726 5730 5730 5728 5730 5731 5735 5740 5743 5744 5745 5748 5749 5753 5753 5757 5759 5763 5766 5769
5721 5718 5713 5708 5703 5700 5697 5694 5693 5692 5692 5692 5687 5690 5692 5695 5697 5696 5695 5699 5700 5700 5701 5706 5711 5715 5712 5714 5716 5722 5729 5732 5734 5737 5735 5739 5742 5743 5745 5749 5751 5756 5760
5709 5704 5698 5692 5687 5684 5680 5677 5674 5674 5674 5673 5670 5670 5670 5674 5678 5682 5680 5679 5687 5688 5688 5687 5692 5695 5696 5697 5703 5708 5716 5721 5725 5726 5724 5727 5733 5733 5734 5736 5741 5744 5750
5695 5689 5684 5679 5673 5668 5665 5661 5659 5657 5656 5655 5654 5652 5651 5653 5658 5664 5668 5666 5669 5672 5672 5674 5672 5677 5681 5684 5686 5691 5702 5708 5711 5712 5714 5717 5722 5721 5723 5725 5729 5732 5738
5680 5675 5669 5664 5659 5654 5650 5647 5645 5643 5641 5639 5639 5637 5635 5635 5638 5644 5651 5654 5655 5660 5660 5658 5659 5660 5663 5668 5673 5679 5684 5693 5697 5700 5705 5708 5709 5709 5712 5715 5719 5722 5725
5665 5659 5653 5649 5645 5640 5637 5633 5630 5627 5625 5624 5622 5621 5619 5620 5622 5625 5632 5637 5640 5644 5646 5646 5646 5645 5649 5653 5655 5662 5668 5678 5685 5687 5690 5693 5695 5698 5702 5704 5707 5711 5714
5649 5643 5639 5635 5632 5627 5623 5619 5615 5610 5608 5608 5607 5604 5604 5606 5608 5610 5615 5620 5624 5629 5633 5633 5632 5633 5635 5639 5643 5646 5651 5658 5666 5670 5674 5678 5681 5685 5689 5693 5695 5699 5702
5633 5629 5626 5621 5618 5614 5610 5606 5601 5597 5594 5593 5591 5590 5590 5592 5596 5597 5601 5606 5610 5616 5620 5623 5621 5621 5624 5627 5630 5632 5637 5639 5647 5652 5658 5664 5667 5672 5677 5682 5685 5689 5692
5619 5615 5613 5609 5604 5602 5598 5594 5590 5585 5582 5579 5577 5575 5577 5579 5582 5584 5589 5594 5599 5604 5608 5610 5611 5612 5612 5612 5614 5617 5621 5626 5628 5635 5644 5649 5652 5655 5661 5668 5673 5669 5670
5606 5602 5599 5596 5591 5589 5586 5582 5579 5575 5572 5568 5565 5565 5566 5567 5570 5573 5578 5584 5589 5593 5597 5601 5603 5603 5602 5602 5602 5603 5605 5611 5613 5619 5629 5636 5638 5640 5644 5651 5658 5654 5652
5595 5588 5585 5580 5577 5575 5573 5570 5568 5566 5563 5559 5556 5555 5556 5559 5563 5567 5571 5576 5580 5583 5587 5590 5592 5593 5593 5592 5588 5588 5592 5597 5602 5605 5611 5608 5618 5623 5627 5634 5640 5645 5651
5583 5578 5573 5568 5565 5563 5560 5559 5559 5557 5554 5552 5549 5550 5551 5553 5557 5561 5565 5569 5573 5575 5578 5580 5582 5582 5582 5580 5577 5577 5581 5585 5590 5592 5594 5598 5599 5605 5612 5618 5624 5628 5632
5573 5568 5562 5558 5555 5553 5551 5551 5551 5550 5549 5547 5545 5545 5545 5547 5550 5554 5558 5562 5565 5567 5569 5571 5572 5573 5572 5571 5569 5569 5572 5576 5578 5581 5584 5587 5589 5592 5597 5601 5607 5613 5616
5563 5558 5553 5549 5547 5546 5545 5545 5545 5545 5543 5542 5541 5540 5541 5542 5544 5547 5551 5554 5557 5559 5561 5562 5563 5563 5563 5563 5562 5562 5563 5565 5569 5570 5574 5577 5579 5579 5582 5588 5592 5597 5602
5554 5549 5544 5542 5541 5541 5542 5541 5541 5540 5539 5539 5538 5537 5538 5538 5539 5540 5543 5546 5548 5551 5552 5552 5553 5554 5553 5553 5554 5555 5556 5558 5559 5561 5562 5565 5566 5569 5571 5573 5579 5583 5588
5548 5542 5539 5538 5538 5538 5538 5537 5538 5538 5537 5537 5536 5536 5536 5536 5537 5538 5539 5539 5540 5541 5541 5542 5542 5542 5543 5543 5544 5545 5546 5548 5549 5549 5550 5551 5551 5553 5557 5561 5564 5568 5571
5543 5539 5537 5536 5535 5535 5535 5534 5534 5534 5534 5534 5534 5534 5534 5535 5535 5535 5535 5535 5535 5536 5535 5534 5534 5534 5534 5533 5534 5534 5534 5536 5538 5538 5538 5540 5540 5538 5541 5545 5549 5551 5553
5539 5537 5535 5534 5533 5533 5532 5532 5531 5531 5530 5529 5529 5529 5530 5531 5530 5530 5530 5530 5530 5530 5530 5529 5529 5528 5527 5526 5526 5525 5525 5525 5523 5525 5525 5526 5526 5524 5524 5526 5529 5531 5534
5535 5533 5532 5531 5531 5531 5530 5530 5529 5528 5526 5526 5525 5525 5525 5525 5524 5525 5525 5525 5526 5526 5525 5524 5522 5521 5520 5519 5519 5519 5517 5516 5515 5514 5514 5514 5514 5514 5512 5510 5511 5514 5516
Wind_Speed
46 48 50 48 47 44 41 43 45 45 45 46 48 48 44 43 43 45 43 46 44 43 40 37 32 33 34 32 30 28 28 27 26 25 25 24 23 23 20 17 15 12 12
45 47 50 52 53 52 50 48 49 51 51 51 50 50 49 46 47 46 43 40 43 43 46 40 37 34 39 37 34 32 31 32 30 29 28 28 28 27 25 24 20 17 15
45 45 45 47 48 49 50 50 52 51 50 50 52 52 51 51 52 50 48 49 48 46 40 36 45 46 32 36 38 36 35 34 34 33 31 31 31 31 30 28 27 23 21
44 46 49 49 50 50 49 51 52 52 52 52 50 51 52 54 53 54 54 51 48 47 50 37 38 33 35 35 44 40 40 39 37 36 36 35 34 34 35 33 31 30 28
45 47 50 52 54 56 56 56 57 57 56 55 55 55 55 56 57 57 56 53 51 49 49 46 40 39 46 49 45 42 57 43 37 38 39 39 38 36 37 38 36 34 33
48 51 53 56 59 61 62 62 60 63 62 60 60 60 59 59 60 62 62 59 56 52 52 50 48 49 50 52 52 51 52 29 35 28 40 42 41 41 40 41 41 38 36
51 54 57 60 62 65 67 68 68 66 65 66 66 64 63 63 65 66 65 64 62 59 55 55 55 57 57 56 53 47 34 33 32 28 39 33 45 39 41 43 44 44 40
59 63 67 68 67 61 57 59 59 61 63 67 67 67 64 66 66 68 67 66 65 64 60 58 58 59 62 61 56 49 53 45 41 31 35 41 40 43 45 46 47 46 43
63 68 72 72 66 60 58 60 62 65 66 67 72 68 67 67 66 68 70 67 66 64 63 61 59 59 65 63 59 53 47 44 45 41 33 45 51 39 48 48 50 50 46
68 72 72 69 63 61 61 61 61 63 67 70 72 73 73 71 70 69 69 68 65 63 62 62 62 62 64 63 58 52 48 47 49 45 35 41 44 42 47 53 55 53 50
65 66 62 62 61 60 54 54 54 55 57 60 63 65 69 71 72 72 69 65 63 59 56 59 59 60 64 66 65 60 52 48 51 50 43 44 43 38 45 56 53 54 51
61 60 58 59 58 54 55 53 52 52 54 56 56 58 64 67 68 68 70 67 61 50 48 51 55 55 55 60 58 58 57 53 53 52 51 47 43 38 38 49 54 55 53
58 58 59 59 56 55 56 56 58 57 54 53 53 51 54 56 57 58 57 58 60 53 49 51 52 54 51 50 50 48 49 54 54 56 54 49 47 43 43 46 55 54 57
57 59 57 55 54 52 53 55 54 54 54 51 51 48 49 50 49 54 53 48 51 52 48 48 46 48 51 48 47 46 49 49 56 59 55 54 51 47 47 46 50 54 55
58 60 54 49 48 46 44 47 50 47 47 49 46 45 42 49 47 39 41 37 39 41 39 40 43 43 45 49 49 47 50 53 59 61 59 56 54 53 52 48 42 47 53
56 52 47 44 43 45 44 46 46 44 43 43 44 36 35 37 42 46 45 38 32 34 33 32 34 37 41 40 46 50 44 61 59 61 54 56 56 56 51 51 46 51 62
55 57 53 50 46 48 47 46 43 40 38 38 35 33 36 30 31 31 31 29 29 29 27 30 32 35 38 40 42 48 47 60 62 60 52 47 45 52 55 60 60 58 41
51 53 50 49 47 46 42 42 39 34 31 30 25 28 28 28 25 26 28 29 29 28 29 31 30 28 29 33 44 48 50 53 62 57 60 74 54 47 50 50 54 56 57
47 47 45 41 39 37 34 33 29 24 21 20 19 24 20 18 22 25 27 26 29 31 32 29 31 31 30 27 33 44 47 46 54 60 58 65 65 71 53 54 54 45 54
44 44 43 39 34 30 25 21 19 16 11 11 10 13 15 12 18 25 29 30 34 34 33 34 33 33 32 27 23 37 41 43 47 55 55 55 62 61 63 61 57 64 64
42 42 41 36 27 19 15 16 14 12 10 9 8 7 8 11 14 20 27 28 32 35 36 36 35 32 33 30 25 24 36 41 45 49 54 51 55 55 60 60 60 65 67
37 37 34 23 14 12 14 14 10 9 10 10 9 8 9 9 11 15 19 23 28 31 33 32 31 31 31 31 31 28 29 32 38 47 52 56 58 55 55 57 60 66 66
32 31 18 12 13 16 10 8 7 9 9 9 9 9 10 10 10 12 15 17 21 24 27 30 31 30 30 31 32 31 34 35 39 41 44 56 60 62 62 60 65 64 65
24 21 15 15 13 9 9 10 11 11 11 11 9 9 8 9 10 11 12 13 15 18 19 21 23 25 26 27 28 30 32 35 37 43 44 45 51 62 65 64 67 68 64
21 17 17 10 9 9 7 9 10 12 13 13 13 13 13 13 10 9 10 12 14 16 17 18 20 21 23 23 25 27 29 30 34 35 37 42 45 56 53 64 66 61 66
16 14 12 12 7 8 10 10 11 11 12 12 13 12 12 12 11 11 12 12 14 16 17 18 18 19 21 21 22 24 25 27 28 31 31 35 38 39 41 60 60 72 71
Wind_Direction
286 288 287 285 285 283 277 275 278 281 279 279 280 279 276 278 279 268 269 270 268 266 263 258 251 250 243 245 246 245 248 250 250 253 254 253 250 250 248 245 248 254 258
282 282 282 283 283 284 283 280 278 278 277 278 277 276 276 273 273 273 276 277 270 272 268 257 254 253 252 243 240 241 242 247 246 247 251 251 250 247 246 246 240 248 258
282 283 282 282 281 281 280 277 275 276 276 275 275 273 272 271 273 274 271 270 274 260 290 273 284 246 259 263 259 243 240 241 245 247 247 253 251 250 247 244 245 240 244
282 282 282 281 279 278 276 276 275 274 273 273 271 269 270 271 270 271 270 272 276 280 280 285 277 282 264 244 250 256 245 239 239 243 246 247 250 251 250 246 242 243 238
284 284 283 282 281 280 279 278 277 275 273 271 270 269 268 268 270 270 270 271 271 274 278 281 281 266 270 257 273 260 265 244 243 248 248 246 244 247 251 251 247 244 243
286 286 285 284 283 281 279 277 274 273 273 273 271 268 268 269 270 271 272 271 270 270 272 272 271 269 268 264 266 271 260 255 295 303 260 248 245 240 243 250 251 247 247
287 286 284 283 282 279 279 276 272 271 271 269 269 269 267 267 267 268 269 270 270 269 268 268 269 268 268 270 271 269 239 316 286 294 294 277 262 246 245 243 250 250 247
293 295 297 296 295 291 281 275 268 268 268 268 264 264 264 265 264 265 266 267 267 269 267 265 263 264 267 267 268 266 266 271 276 272 277 286 270 251 255 247 243 248 249
297 296 294 294 295 289 281 273 267 265 263 261 264 261 258 257 258 261 263 262 263 265 267 265 262 260 264 264 266 266 264 266 269 267 266 276 282 264 251 248 240 244 245
295 293 293 295 292 285 279 276 273 269 267 265 265 264 263 257 253 254 258 262 260 262 264 267 266 263 262 266 266 265 258 254 260 261 259 265 274 272 256 245 242 240 244
296 296 295 292 288 285 283 282 280 275 271 266 265 266 266 264 262 256 254 262 264 266 269 269 270 269 264 266 268 267 260 251 253 255 252 253 262 266 251 239 236 239 242
303 299 293 289 286 284 285 285 284 283 277 272 268 271 268 266 265 262 261 261 264 264 264 264 266 269 268 266 267 267 263 253 248 249 250 251 255 261 259 243 241 245 240
303 297 291 288 287 286 286 286 286 283 281 278 273 275 268 264 262 263 262 262 260 259 257 262 265 265 264 264 264 260 258 253 243 244 245 244 244 248 258 251 241 243 245
300 295 291 288 287 287 287 288 291 287 281 279 277 278 264 257 263 260 259 257 253 251 252 262 264 266 267 263 260 254 238 242 238 240 242 241 242 244 246 249 246 238 241
297 294 291 289 288 288 290 292 289 291 285 281 283 279 265 257 256 257 250 252 252 249 251 252 255 261 266 262 255 253 241 225 234 237 237 240 242 240 244 247 246 238 236
297 291 288 290 288 287 292 297 290 290 290 286 289 274 267 262 256 255 254 253 247 244 246 251 257 266 263 265 258 251 248 229 228 232 236 239 244 244 240 239 238 240 234
295 292 292 292 289 287 290 295 290 288 287 292 284 271 274 266 258 250 239 236 242 243 251 252 259 264 263 262 264 252 244 233 239 232 220 224 234 235 230 234 236 238 228
297 296 297 291 289 288 285 288 286 287 286 295 284 279 276 260 255 243 233 237 238 246 258 264 266 267 260 270 262 253 243 233 242 236 230 235 231 225 226 227 229 234 228
300 301 300 299 297 291 284 280 281 285 286 296 289 252 231 227 235 234 231 240 245 256 261 270 272 277 281 284 265 249 243 240 241 246 240 238 249 242 233 227 235 236 237
304 303 302 301 298 286 274 277 279 276 284 289 285 277 252 249 244 246 241 248 249 262 266 273 275 276 279 281 282 248 241 249 245 252 249 247 247 251 250 242 236 233 245
304 302 302 300 286 268 275 275 270 270 273 285 298 296 296 274 255 250 253 262 255 264 270 272 275 272 271 271 273 261 249 245 246 250 254 258 255 260 251 245 248 247 247
303 302 302 289 263 262 272 271 276 291 301 302 298 293 284 291 289 272 268 267 267 269 269 268 269 269 269 267 265 257 252 251 254 253 247 250 253 256 259 246 251 249 248
306 306 293 276 273 268 262 269 276 284 292 299 295 294 288 271 265 273 275 274 274 275 276 277 277 276 271 263 262 258 248 247 250 252 255 254 254 254 253 253 252 250 247
310 312 307 294 272 246 257 266 275 286 293 287 282 280 282 277 279 280 276 279 281 281 282 282 281 282 283 279 271 266 263 253 245 249 253 250 251 254 253 253 253 251 251
293 300 304 280 268 263 273 283 285 283 283 280 277 277 273 275 271 268 272 276 278 277 277 275 277 279 282 284 285 286 284 282 274 266 258 255 255 256 259 254 253 252 253
294 293 291 274 257 269 273 277 282 290 290 286 275 274 273 272 271 275 278 279 279 276 277 278 281 280 278 276 270 266 267 270 270 272 275 273 267 262 265 258 254 250 252